FLOCK 4BE 22

导读

FLOCK 4BE 22是美国于2024年8月16日发射的人造遥感卫星,隶属于Planet公司Flock卫星星座。作为“鸽群”遥感星座的组成单元,这是一颗小型立方体卫星,运行于近地轨道,具备地球光学观测能力。它将和星座中其他卫星协同,实现高频次全球覆盖,可提供高分辨率地表影像,服务于农业监测、自然资源管理、灾害评估、城市规划等民用商业领域,延续了Flock星座高重访频率的对地观测优势。

基本信息
目录编号:
60494
目录名称:
FLOCK 4BE 22
国际标识:
2024-149AC
轨道中心:
EARTH
卫星名称:
FLOCK 4BE 22
卫星全名:
FLOCK 4BE 22
卫星状态:
在轨 (已飞行709 天)
发射日期:
2024-08-16 UTC
国别 :
美国 (US)
星等 :
--
轨道信息
数据来源 国际轨道数据
星历时间: 2026-07-26T19:15:04+0800
10小时前
查看轨道信息
半长轴: 6817.176km
偏心率: 0.0005103
轨道倾角: 97.373°
近地点辐角 125.562°
升交点赤经 291.431°
平近点角 234.611°
近地点: 435.56km
远地点: 442.518km
周期: 93.361分钟
每日圈数: 15.423964
详细信息
使用方式:
暂无
2D轨道图
3D轨道图
轨道高度分析图
轨道倾角分析图
轨道综合分析图
查看轨道综合分析图